Voltar ao catálogo

ATLAS 5 CENTAUR DEB

LostHEO
NORAD 46649·DEBRIS·🇺🇸 United States

Lançado Sep 17, 2014 de Cape Canaveral Space Force Station

Loading…

Próximas Passagens (próximas 24 horas)

TLE

ObsoletoSource: Space-Track

Época: Nov 26, 2023, 23:58 UTC

1 46649U 14055CZ  23330.99911728 -.00000114  00000-0  00000+0 0  9997
2 46649  20.6360 250.0889 4708792 341.2807   6.0623  1.82085041 20774

Acompanhe ATLAS 5 CENTAUR DEB em tempo real com AllMySat

Download on the App Store